Location: Argonnex
(45.9500°N, 6.1333°E)
Time: 04:11:00
(UTC+00:00)

Cosmos 2266 Rocket - Pass Details

Date: 07 August 2024
Orbit: 933 x 1008 km, 82.9° (Epoch: 08 September)

Event Time Altitude Azimuth Distance (km) Brightness Sun altitude
Rises 02:13:01 0° 347° (NNW) 3,603 7.5 -18.9°
Reaches altitude 10° 02:15:33 10° 343° (NNW) 2,653 6.7 -18.7°
Maximum altitude 02:21:23 53° 268° (W) 1,140 4.1 -18.0°
Enters shadow 02:24:28 27° 205° (SSW) 1,710 4.7 -17.7°
